Regional Weather Roundup
Issued by NWS

Home | Current Version | Previous Version | Graphics & Text | Print | Product List | Glossary On
Versions: 1 2 3 4 5 6 7 8 9 10 11 12 13 14 15 16 17 18 19 20 21 22 23 24 25 26 27 28 29 30 31 32 33 34 35 36 37 38 39 40 41 42 43 44 45 46 47 48 49 50
834
ASUS44 KJAN 190603
RWRMS

MISSISSIPPI HOURLY WEATHER ROUNDUP
NATIONAL WEATHER SERVICE JACKSON MS
1200 AM CST FRI DEC 19 2014

NOTE: "FAIR: INDICATES FEW OR NO CLOUDS BELOW 12,000 FEET WITH NO
SIGNIFICANT WEATHER AND/OR OBSTRUCTIONS TO VISIBILITY.

MSZ001>002-007>008-010>013-018>021-025>028-034>036-190700-
NORTHWEST MISSISSIPPI

CITY           SKY/WX    TMP DP  RH WIND       PRES   REMARKS
CLARKSDALE     CLOUDY    45  41  87 N5        30.24S
CLEVELAND      CLOUDY    45  43  93 N9        30.22S
GREENWOOD      CLOUDY    48  40  73 CALM      30.22R
6HR MIN TEMP:  48; 6HR MAX TEMP:  51;

GREENVILLE     CLOUDY    47  43  86 N9        30.21S
6HR MIN TEMP:  47; 6HR MAX TEMP:  50;

GRENADA        CLOUDY    45  39  81 CALM      30.23S
OLIVE BRANCH   CLOUDY    41  41 100 NE3       30.23F
OXFORD         CLOUDY    41  37  87 NE5       30.23F
TUNICA         CLOUDY    43  41  93 NE3       30.24F
$$

MSZ003>006-009-014>017-022>024-029>033-037>039-190700-
NORTHEAST MISSISSIPPI

CITY           SKY/WX    TMP DP  RH WIND       PRES   REMARKS
COLUMBUS AFB   NOT AVBL
CORINTH        CLOUDY    43  37  81 N3        30.22F
GOLDN TRIANGLE PTCLDY    39  34  81 N5        30.20F
STARKVILLE     CLOUDY    45  37  76 N3        30.20F
TUPELO         CLOUDY    45  38  76 NE6       30.22F
6HR MIN TEMP:  45; 6HR MAX TEMP:  46;

$$

MSZ040-058-190700-
CENTRAL MISSISSIPPI

CITY           SKY/WX    TMP DP  RH WIND       PRES   REMARKS
JACKSON INTL   CLOUDY    47  44  90 E3        30.18F
6HR MIN TEMP:  44; 6HR MAX TEMP:  49;

JACKSON HAWKNS CLOUDY    48  44  86 CALM      30.18F
6HR MIN TEMP:  46; 6HR MAX TEMP:  50;

MERIDIAN KEY   CLOUDY    44  40  85 CALM      30.19F
6HR MIN TEMP:  43; 6HR MAX TEMP:  49;

MERIDIAN NAS   MOCLDY    39  37  92 CALM      30.20F
6HR MIN TEMP:  39; 6HR MAX TEMP:  48;

RAYMOND        CLOUDY    46  41  81 CALM      30.18S
VICKSBURG      CLOUDY    50  45  83 NE3       30.19S
6HR MIN TEMP:  43; 6HR MAX TEMP:  50;

$$

MSZ059>079-190700-
SOUTH MISSISSIPPI

CITY           SKY/WX    TMP DP  RH WIND       PRES   REMARKS
HATTIESBURG    CLOUDY    51  49  92 CALM      30.19S
6HR MIN TEMP:  50; 6HR MAX TEMP:  51; 6HR PCP:  0.02;

MCCOMB         CLOUDY    51  49  92 NE3       30.14F
6HR MIN TEMP:  50; 6HR MAX TEMP:  51;

NATCHEZ        CLOUDY    48  46  93 NE5       30.15F
6HR MIN TEMP:  48; 6HR MAX TEMP:  50;

PINE BELT      CLOUDY    48  46  93 NE3       30.19S
6HR MIN TEMP:  48; 6HR MAX TEMP:  48;

$$

MSZ080>082-190700-
COASTAL MISSISSIPPI

CITY           SKY/WX    TMP DP  RH WIND       PRES   REMARKS
BILOXI         CLOUDY    54  51  87 NE9       30.14F
6HR MIN TEMP:  54; 6HR MAX TEMP:  59;

PASCAGOULA     CLOUDY    55  46  71 NE5       30.15F
6HR MIN TEMP:  55; 6HR MAX TEMP:  58;

GULFPORT       CLOUDY    54  50  86 NE6       30.14F
6HR MIN TEMP:  54; 6HR MAX TEMP:  59; 6HR PCP: TRACE;

$$



USA.gov is the U.S. government's official web portal to all federal, state and local government web resources and services.